COSMOS 1261 DEB, 12894

Orbit data source: Space-Track

COSMOS 1261 DEB, 12894 is space debris in HEO originally from a launch on Tue, 31 Mar 1981 UTC launched from the Plesetsk Missile And Space Complex (PKMTR). Debris objects in space refer to the collection of defunct objects orbiting the Earth. Examples of debris include non-operational satellites, rocket bodies, and fragments generated from explosions, collisions, or faulty payload assembly.

Loading next visibility...
COSMOS 1261 DEB details
Identifier
12894, 1981-031G
Orbit
HEO
Last TLE update1 month ago
Origin
Flag of CISPVO (CIS)
ManufacturerUnknown
MissionSpacecraft
Bus & MotorUnknown
MassUnknown
Launch date (UTC)
1981-03-31 (44 years ago)
Launch vehicleUnknown
Launch site
Plesetsk Missile And Space Complex (PKMTR)
Object type
Payload
Rocket body
Debris
Shape & HBRUnknown
Radar Cross SectionMedium (>0.1 m² and <1 m²)

Expand to show TLE details & history

TLE from 1 month ago
0 COSMOS 1261 DEB
1 12894U 81031G   24365.62936132 -.00000121  00000-0  00000-0 0  9994
2 12894  69.3406 122.4651 5929736   3.8929  10.4218  2.00533882291073
Epoch: 2024-12-30T15:06Z
Definitive object data (Epoch: 2024-12-30T15:06:16.818Z)
Latitude46.85773°
Longitude179.92493°
Altitude5,901.152 km
Speed7.069 km/s
True Right ascension09h 44m 10s
True Declination46° 45' 29"
Sunlit
Object was in daylight at TLE epoch
Visualization TLE readout
Latitude19.33134°
Longitude-33.28514°
Altitude31,311.797 km
Speed2.48 km/s
Apparent Right ascension19h 21m 37s
Apparent Declination11° 47' 35"
Sunlit
Object is in daylight
Visualization observer readout
Local Sidereal Time06:09:55
Azimuth338.234° N
Elevation-35.678°
Doppler factor1
Orbital elements
Apogee altitude35,934.418 km
Perigee altitude4,433.296 km
Semi-major axis26,561.994 km
Eccentricity0.5929736
Inclination69.3406°
RAAN122.4651°
Arg. of periapsis3.8929°
True anomaly46.53173°
Mean anomaly10.4218°
Eccentric anomaly24.52379°
Mean motion0.50136 °/min
BSTARUnknown
Orbital period718.04 mins
Loading maneuver chart data...
Loading historical data...
Loading historical data...
Loading historical data...
Loading historical data...
Loading historical data...
Loading historical data...
Loading historical data...

COSMOS 1261 DEB Visibility forecast

Observer location: undefined°, undefined

Span
Click to sort rows by Start time (UTC) header in descending order
Start Az.
Max El. time (UTC)
Max El. Az.
Max El.
End time (UTC)
End Az.
468 mins2025-02-05 12:50:08.218Z310.491° NW2025-02-05 15:05:08.218Z98.495° ESE40.724°2025-02-05 20:38:08.218Z209.508° SW
|